Tracking 26321 objects as of 27-Nov-2022
HD Live streaming from Space Station
objects crossing your sky now

STARLINK-5029

Track STARLINK-5029 now!
10-day predictions
STARLINK-5029 is classified as:


NORAD ID: 53887
Int'l Code: 2022-119B
Perigee: 513.9 km
Apogee: 516.3 km
Inclination: 53.2 °
Period: 94.8 minutes
Semi major axis: 6886 km
RCS: Unknown
Launch date: September 24, 2022
Source: United States (US)
Launch site: AIR FORCE EASTERN TEST RANGE (AFETR)
aabbcc
Your satellite tracking list
Your tracking list is empty




NASA's NSSDC Master Catalog

Two Line Element Set (TLE):
1 53887U 22119B   22330.91667824 -.01160395  00000-0 -58930-1 0  9992
2 53887  53.2166 305.8827 0001750  44.1224  68.1799 15.19306906 10280
Source of the keplerian elements: AFSPC